This is the latest recevied weather packets stored in our database for station/object N5CSU. If no packets are shown the sender has not sent any weather packets the latest 10 day(s).
| Time | Temp. | Humidity | Pressure | Rain* | Wind** | Luminosity | Snow |
|---|---|---|---|---|---|---|---|
| 1788555238 | 37.22° C | 43% | 1012.1 hPa | 0 mm | - | 33 W/m² | - |
| 1788554935 | 37.22° C | 44% | 1012 hPa | 0 mm | - | 24 W/m² | - |
| 1788554631 | 36.67° C | 45% | 1012.2 hPa | 0 mm | - | 32 W/m² | - |
| 1788554327 | 36.67° C | 45% | 1012.2 hPa | 0 mm | - | 32 W/m² | - |
| 1788554023 | 36.67° C | 45% | 1012.2 hPa | 0 mm | - | 33 W/m² | - |
| 1788553719 | 36.67° C | 46% | 1012.5 hPa | 0 mm | - | 34 W/m² | - |
| 1788553415 | 36.11° C | 46% | 1012.3 hPa | 0 mm | - | 21 W/m² | - |
| 1788553110 | 36.67° C | 47% | 1012.6 hPa | 0 mm | - | 23 W/m² | - |
| 1788552805 | 36.11° C | 46% | 1012.7 hPa | 0 mm | - | 22 W/m² | - |
| 1788552500 | 36.11° C | 47% | 1012.6 hPa | 0 mm | - | 23 W/m² | - |
| 1788552198 | 35.56° C | 48% | 1012.6 hPa | 0 mm | - | 29 W/m² | - |
| 1788551894 | 35.56° C | 48% | 1013 hPa | 0 mm | - | 20 W/m² | - |
| 1788551592 | 36.11° C | 48% | 1012.9 hPa | 0 mm | - | 22 W/m² | - |
| 1788551287 | 36.67° C | 46% | 1013.1 hPa | 0 mm | - | 20 W/m² | - |
| 1788550986 | 36.67° C | 45% | 1013.1 hPa | 0 mm | - | 30 W/m² | - |
| 1788550682 | 35.56° C | 47% | 1013.2 hPa | 0 mm | - | 32 W/m² | - |
| 1788550377 | 36.11° C | 47% | 1013.3 hPa | 0 mm | - | 32 W/m² | - |
| 1788550072 | 36.11° C | 46% | 1013.3 hPa | 0 mm | - | 34 W/m² | - |
| 1788549767 | 36.67° C | 45% | 1013.3 hPa | 0 mm | - | 74 W/m² | - |
| 1788549464 | 36.67° C | 46% | 1013.4 hPa | 0 mm | - | 78 W/m² | - |
| 1788549160 | 36.11° C | 46% | 1013.5 hPa | 0 mm | - | 99 W/m² | - |
| 1788548856 | 36.11° C | 47% | 1013.4 hPa | 0 mm | - | 153 W/m² | - |
| 1788548552 | 36.67° C | 47% | 1013.5 hPa | 0 mm | - | 31 W/m² | - |
| 1788548248 | 36.67° C | 46% | 1013.6 hPa | 0 mm | - | 34 W/m² | - |
| 1788547943 | 36.11° C | 48% | 1013.6 hPa | 0 mm | - | 25 W/m² | - |
* Rain latest hour (hover to see other rain measurements)
** Current wind speed in m/s (hover to see current wind gust speed)